Location: Forst
(46.9333°N, 15.4333°E)
Time: 15:39:28
(UTC+00:00)

Cosmos 2263 - Pass Details

Date: 01 December 2020
Orbit: 833 x 864 km, 70.9° (Epoch: 28 January)

Event Time Altitude Azimuth Distance (km) Brightness Sun altitude
Rises 17:12:53 0° 331° (NNW) 3,392 7.6 -20.1°
Reaches altitude 10° 17:15:20 10° 331° (NNW) 2,453 6.8 -20.5°
Maximum altitude 17:20:57 79° 246° (WSW) 854 4.2 -21.4°
Drops below altitude 10° 17:26:32 10° 160° (SSE) 2,437 6.5 -22.3°
Sets 17:28:58 0° 159° (SSE) 3,370 7.2 -22.8°
